Location: Heilwood
(40.6210°N, 78.9150°W)
Time: 11:54:00
(UTC-04:00)

BREEZE-M DEB (TANK) - Visible Passes

Search period start: 29 April 2016 00:00
Search period end: 09 May 2016 00:00
Orbit: 284 x 15919 km, 49.5° (Epoch: 28 April)

Date Brightness Start Highest point End Pass type
(mag) Time Alt. Az. Time Alt. Az. Time Alt. Az.
29 Apr 8.0 00:58:02 10° SW 02:07:08 86° NW 04:30:10 10° E visible
29 Apr 7.7 20:15:32 10° SE 20:58:44 26° ENE 22:30:19 10° NE visible
30 Apr 8.1 01:03:32 10° SW 02:15:41 84° NW 04:36:25 10° E visible
30 Apr 7.7 20:18:45 10° SE 21:01:26 28° ENE 22:38:45 10° NE visible
01 May 8.1 01:09:03 10° SW 02:24:44 83° NNW 04:42:35 10° E visible
01 May 7.7 20:22:14 10° SE 21:04:14 31° E 22:46:56 10° NE visible
02 May 8.1 01:14:36 10° WSW 02:34:22 81° NNW 04:48:40 10° E visible
02 May 7.6 20:25:57 10° SE 21:07:11 33° E 22:54:57 10° NE visible
03 May 8.2 01:20:10 10° WSW 02:44:41 80° NNW 04:54:41 10° E visible
03 May 7.6 20:29:49 10° SE 21:10:15 36° E 23:02:48 10° NE visible
04 May 8.2 01:25:46 10° WSW 02:55:41 79° NNW 05:00:37 10° E visible
04 May 7.6 20:33:50 10° SSE 21:13:27 38° E 23:10:31 10° NE visible
05 May 8.3 01:31:22 10° WSW 03:07:26 78° NNW 05:06:28 10° E visible
05 May 7.5 20:37:58 10° SSE 21:16:48 41° E 23:18:08 10° NE visible
06 May 8.3 01:37:02 10° WSW 03:19:49 78° N 05:12:16 10° ESE visible
06 May 7.5 20:42:11 10° SSE 21:20:17 43° E 23:25:39 10° NE visible
07 May 8.4 01:42:42 10° WSW 03:32:33 78° N 05:17:57 10° ESE visible
07 May 7.5 20:46:28 10° SSE 21:23:53 46° E 23:33:04 10° NE visible
08 May 8.4 01:48:24 10° WSW 03:45:12 78° N 05:23:35 10° ESE visible
08 May 7.5 20:50:50 10° S 21:27:39 49° E 23:40:25 10° NE visible
